User: anonymous   Login
Location: Unspecified
(0.0000°N, 0.0000°E)
Time: 15:13:02
(UTC+00:00)
Language:

UHF F/O F3 - Orbit

View from above orbital plane
View from above orbital plane
View from above satellite
View from above satellite

Ground track
Ground track

The orbit data is extracted from the following two-line orbital elements,

1 23132U 94035A   18249.60437918 0.00000000  00000-0  00000-0 0    07
2 23132  11.1572  23.2129 0002392 252.8522 107.1336  1.00277656    06
Epoch (UTC): 06 September 2018 14:30:18
Eccentricity: 0.0002392
inclination: 11.1572°
perigee height: 35774 km
apogee height: 35794 km
right ascension of ascending node: 23.2129°
argument of perigee: 252.8522°
revolutions per day: 1.00277656
mean anomaly at epoch: 107.1336°
orbit number at epoch: 0

The dashed part of the orbit path shows where the satellite is in the earth's shadow,  

DLR